Location: Lichtensteig
(47.3376°N, 9.0841°E)
Time: 22:55:23
(UTC+00:00)

USA 307 - Pass Details

Date: 03 March 2021
Orbit: 567 x 577 km, 54.0° (Epoch: 20 April)

Event Time Altitude Azimuth Distance (km) Brightness Sun altitude
Rises 18:15:48 0° 277° (W) 2,785 8.6 -11.6°
Reaches altitude 10° 18:18:13 10° 287° (WNW) 1,885 6.9 -12.0°
Maximum altitude 18:22:10 34° 353° (N) 953 4.1 -12.7°
Enters shadow 18:25:24 14° 55° (NE) 1,640 4.8 -13.2°
